STARLINK-4691 (53588 NORAD) Tracking and Keplerian Element Data

This shows tracking and keplerian element data for the satellite.

Feedback or suggestion? Click here.




ElementValue
Catalog53588
NameSTARLINK-4691
Epoch Orbit130
Epoch Day324.91667824
Epoch Year2022
RAAN252.7927
Inclination53.2158
Eccentricity0.0001631
Argument of Perigee65.9231
Mean Anonmoly218.4137
Mean Motion15.08858321
Decay Rate-0.00042084
L11 53588U 22104A 22324.91667824 -.00042084 00000+0 -26403-2 0 9990
L22 53588 53.2158 252.7927 0001631 65.9231 218.4137 15.08858321 1307



Live tracking and technical data element details for STARLINK-4691 (NORAD 53588). STARLINK-4691 can be tracked NOW for your location showing map with azimuth and elevation plus other details from your city location.







IsCatalogInMostPopularTable: catalog: 53588, numindb: 5
Update: records affected: 1



GetName: 53588 STARLINK-4691

Hit Count: updated at: Tue, 29 Nov 2022 01:30:13 GMT